Cloud_Cover
0 0 0 0 0 0 0 0 0 0 0 0 0 0 0 0 0 0 0 0 0 0 0 0 0 0 0 0 0 0 0 0 42 64 56 53 100 88 34 22 0 0 0 0
0 0 0 0 0 0 0 0 0 0 0 0 0 0 0 0 0 0 0 0 0 0 0 0 0 0 0 0 0 0 0 0 1 15 9 3 13 28 98 30 28 22 26 13
0 0 0 0 0 0 0 0 0 0 0 0 0 0 0 0 0 0 0 0 0 0 0 0 0 0 0 0 0 0 0 0 19 7 100 53 24 14 3 5 4 0 19 44
0 0 0 0 0 0 0 0 0 0 0 0 0 0 0 0 0 0 0 0 0 0 0 0 0 0 0 0 0 0 0 39 80 46 57 100 72 5 0 0 0 0 0 24
0 0 0 0 0 0 0 0 0 0 0 0 0 0 0 0 0 0 0 0 0 0 0 0 0 0 0 0 0 0 2 25 41 100 54 100 63 5 0 0 0 0 0 16
0 0 0 0 0 0 0 0 0 0 0 0 0 0 0 0 0 0 0 0 0 0 1 1 1 1 0 0 1 4 8 54 60 95 73 100 55 5 0 0 0 0 0 5
0 0 0 0 0 0 0 0 1 0 0 0 0 0 0 0 0 0 0 0 4 49 84 80 10 5 37 19 5 8 6 1 100 88 11 47 4 0 1 0 0 0 0 4
0 0 0 0 0 0 0 0 1 5 0 0 0 0 0 0 0 0 0 3 4 5 5 5 77 82 53 84 74 6 34 75 34 34 63 92 100 87 44 4 0 0 0 0
0 0 0 0 0 0 0 0 3 5 3 5 0 0 0 0 0 5 80 6 5 5 5 2 5 34 100 100 100 100 88 77 100 100 100 100 100 96 5 5 5 0 0 6
0 0 0 0 0 0 4 5 8 26 62 5 4 0 0 0 0 17 91 48 5 5 5 5 1 16 100 99 100 100 62 11 18 56 32 53 5 2 5 0 0 0 45 87
0 0 0 0 0 0 0 4 46 99 85 60 49 1 0 0 0 0 0 1 1 4 5 92 79 98 100 100 100 100 83 91 5 5 11 6 47 36 4 14 75 85 96 100
0 0 0 0 0 0 0 0 5 73 6 31 80 13 0 0 1 6 6 5 4 0 5 37 88 77 100 100 100 100 100 98 77 55 7 58 73 99 89 100 100 100 97 100
0 0 6 0 0 0 0 0 1 36 99 6 100 11 8 23 32 100 24 5 79 39 72 98 100 98 100 100 100 100 100 90 14 5 5 5 80 100 100 100 100 100 100 100
0 6 1 4 0 0 3 5 36 100 100 53 40 13 95 99 84 100 63 11 15 89 100 90 100 100 100 94 100 100 99 62 100 56 14 3 19 100 100 100 100 99 100 100
0 2 0 0 3 5 5 4 3 66 26 100 29 52 97 100 100 100 100 96 98 100 100 94 100 100 100 100 100 100 100 32 15 53 4 31 97 44 100 100 100 100 100 100
0 0 3 5 0 4 21 0 5 91 100 39 11 22 100 100 100 100 100 68 10 100 100 62 100 100 100 100 100 100 100 100 29 25 9 82 100 99 99 100 100 100 100 100
3 58 100 38 8 94 14 1 0 2 14 49 100 100 100 100 99 92 98 55 26 89 100 90 100 100 100 99 100 100 65 18 77 5 83 100 100 100 100 100 100 100 100 100
21 98 100 99 83 66 0 0 25 71 88 80 100 100 100 100 100 78 98 78 11 60 100 100 94 100 100 89 100 98 98 41 33 13 93 73 100 100 100 100 100 100 100 100
9 93 57 69 100 2 0 66 6 62 100 100 68 100 89 89 92 99 23 21 5 5 57 100 100 100 100 100 13 84 100 100 86 94 93 77 100 100 100 100 100 100 100 100
19 0 15 70 98 54 1 4 5 40 86 35 99 90 89 100 100 100 91 96 98 38 37 87 98 100 100 100 100 63 42 5 48 100 100 98 100 100 100 100 100 100 100 100
4 5 34 22 98 26 4 10 8 95 41 60 100 99 100 100 93 95 100 100 100 100 100 100 100 100 100 100 100 100 100 100 100 98 100 100 100 100 100 100 100 100 100 100
37 93 66 100 100 61 32 42 48 67 99 92 98 98 69 88 96 97 100 100 100 100 100 100 100 100 100 100 100 100 100 100 88 100 100 100 100 100 100 100 100 100 100 100
64 100 100 100 6 5 69 99 100 100 100 100 100 91 87 98 100 100 100 100 100 100 100 100 100 100 100 100 100 100 100 100 100 100 100 100 100 100 100 100 100 100 100 100
82 100 99 100 5 65 91 83 96 100 99 84 100 100 100 100 100 100 100 100 100 100 100 100 100 100 100 100 100 100 100 100 100 100 100 100 100 100 100 100 100 100 100 100
100 100 96 25 7 37 87 59 67 85 100 100 100 100 100 100 100 100 100 100 100 100 100 100 100 100 100 100 100 100 100 96 100 100 100 100 100 100 100 100 100 100 100 100
67 93 100 88 90 100 100 96 92 100 100 100 100 100 100 100 100 100 100 100 100 100 100 100 100 100 100 100 100 100 78 99 100 100 100 100 100 100 100 100 100 100 100 100